GEFSGL_prec_meanprecacc_012.txt.gz
Total_Precipitation_Accumulation
0.02 0.02 0.02 0.05 0.09 0.14 0.17 0.18 0.18 0.16 0.14 0.10 0.08 0.07 0.04 0.02 0.01 0.02 0.04 0.04 0.05 0.08 0.10 0.14 0.19 0.23 0.26 0.28 0.35 0.40 0.44 0.50 0.50 0.43 0.42 0.43 0.36 0.20 0.09 0.04 0.01 0.00 0.00
0.02 0.02 0.01 0.01 0.03 0.06 0.10 0.14 0.16 0.15 0.14 0.13 0.12 0.10 0.06 0.04 0.02 0.02 0.03 0.03 0.04 0.04 0.05 0.09 0.12 0.14 0.20 0.26 0.34 0.39 0.44 0.54 0.55 0.40 0.34 0.34 0.31 0.22 0.11 0.07 0.02 0.01 0.01
0.01 0.01 0.00 0.00 0.00 0.01 0.04 0.07 0.10 0.12 0.13 0.13 0.13 0.10 0.08 0.06 0.04 0.03 0.03 0.03 0.03 0.03 0.04 0.07 0.08 0.11 0.16 0.21 0.30 0.33 0.37 0.52 0.57 0.47 0.37 0.30 0.29 0.20 0.13 0.08 0.04 0.02 0.01
0.00 0.01 0.01 0.01 0.01 0.01 0.01 0.03 0.05 0.08 0.11 0.12 0.12 0.11 0.10 0.08 0.05 0.04 0.02 0.01 0.01 0.03 0.06 0.07 0.08 0.09 0.11 0.11 0.21 0.33 0.39 0.46 0.54 0.52 0.47 0.41 0.32 0.24 0.19 0.14 0.08 0.04 0.01
0.04 0.04 0.05 0.04 0.04 0.04 0.04 0.03 0.04 0.06 0.09 0.12 0.12 0.12 0.11 0.09 0.06 0.05 0.04 0.02 0.01 0.01 0.03 0.06 0.04 0.05 0.06 0.07 0.10 0.22 0.35 0.49 0.66 0.69 0.62 0.58 0.46 0.34 0.27 0.19 0.13 0.07 0.02
0.04 0.04 0.03 0.03 0.03 0.03 0.03 0.03 0.03 0.05 0.09 0.12 0.13 0.13 0.12 0.10 0.07 0.04 0.03 0.02 0.01 0.01 0.03 0.06 0.05 0.02 0.01 0.02 0.03 0.09 0.18 0.32 0.50 0.66 0.70 0.65 0.56 0.48 0.36 0.23 0.14 0.07 0.04
0.01 0.01 0.01 0.01 0.02 0.02 0.03 0.02 0.02 0.04 0.07 0.12 0.14 0.15 0.14 0.14 0.11 0.06 0.04 0.02 0.02 0.01 0.02 0.03 0.03 0.02 0.01 0.00 0.01 0.02 0.05 0.12 0.23 0.36 0.46 0.48 0.49 0.45 0.32 0.19 0.13 0.08 0.05
0.00 0.00 0.00 0.00 0.01 0.02 0.03 0.05 0.05 0.05 0.07 0.10 0.13 0.15 0.17 0.17 0.14 0.09 0.06 0.03 0.02 0.01 0.01 0.01 0.03 0.04 0.03 0.01 0.01 0.01 0.01 0.03 0.08 0.14 0.19 0.22 0.22 0.20 0.16 0.13 0.10 0.06 0.04
0.00 0.00 0.00 0.00 0.01 0.01 0.02 0.05 0.09 0.10 0.10 0.13 0.16 0.18 0.20 0.21 0.16 0.11 0.07 0.04 0.02 0.01 0.01 0.01 0.02 0.03 0.01 0.00 0.01 0.01 0.01 0.01 0.02 0.03 0.04 0.05 0.04 0.03 0.04 0.04 0.02 0.01 0.01
0.01 0.01 0.01 0.01 0.02 0.02 0.02 0.04 0.08 0.12 0.14 0.17 0.22 0.26 0.28 0.27 0.21 0.14 0.11 0.06 0.04 0.03 0.03 0.02 0.01 0.01 0.00 0.01 0.02 0.01 0.00 0.00 0.00 0.01 0.01 0.01 0.01 0.00 0.00 0.01 0.01 0.00 0.00
0.02 0.02 0.02 0.02 0.03 0.03 0.04 0.05 0.07 0.09 0.14 0.21 0.26 0.30 0.35 0.38 0.33 0.20 0.15 0.12 0.08 0.05 0.03 0.02 0.01 0.00 0.00 0.00 0.01 0.01 0.00 0.00 0.00 0.00 0.00 0.00 0.00 0.00 0.00 0.00 0.00 0.00 0.00
0.03 0.03 0.03 0.04 0.03 0.02 0.05 0.07 0.08 0.10 0.14 0.22 0.33 0.41 0.46 0.49 0.47 0.33 0.20 0.16 0.14 0.10 0.05 0.02 0.00 0.00 0.00 0.00 0.00 0.00 0.00 0.00 0.00 0.00 0.00 0.00 0.00 0.00 0.00 0.00 0.00 0.00 0.00
0.05 0.05 0.05 0.05 0.06 0.06 0.07 0.07 0.07 0.09 0.11 0.19 0.36 0.53 0.61 0.61 0.56 0.45 0.29 0.20 0.18 0.15 0.07 0.03 0.01 0.00 0.00 0.00 0.00 0.00 0.00 0.00 0.00 0.00 0.00 0.00 0.00 0.00 0.00 0.00 0.00 0.00 0.00
0.07 0.08 0.08 0.08 0.07 0.07 0.09 0.08 0.07 0.07 0.09 0.18 0.35 0.51 0.63 0.63 0.53 0.42 0.32 0.25 0.23 0.20 0.11 0.04 0.01 0.00 0.00 0.00 0.00 0.00 0.00 0.00 0.00 0.00 0.00 0.00 0.00 0.00 0.00 0.00 0.00 0.00 0.00
0.11 0.11 0.10 0.10 0.09 0.09 0.09 0.09 0.08 0.08 0.09 0.14 0.30 0.51 0.59 0.53 0.42 0.34 0.29 0.27 0.25 0.23 0.14 0.06 0.01 0.00 0.00 0.00 0.00 0.00 0.00 0.00 0.00 0.00 0.00 0.00 0.00 0.00 0.00 0.00 0.00 0.00 0.00
0.17 0.14 0.14 0.13 0.12 0.10 0.10 0.09 0.07 0.06 0.05 0.04 0.11 0.26 0.38 0.35 0.29 0.26 0.24 0.22 0.20 0.16 0.10 0.05 0.01 0.00 0.00 0.00 0.00 0.00 0.00 0.00 0.00 0.00 0.00 0.00 0.00 0.00 0.00 0.00 0.00 0.00 0.00
0.21 0.18 0.17 0.15 0.13 0.11 0.11 0.13 0.14 0.14 0.07 0.04 0.04 0.09 0.15 0.17 0.20 0.27 0.26 0.18 0.12 0.08 0.03 0.01 0.00 0.00 0.00 0.00 0.00 0.00 0.00 0.00 0.00 0.00 0.00 0.00 0.00 0.00 0.00 0.00 0.00 0.00 0.00
0.21 0.19 0.17 0.15 0.13 0.11 0.13 0.14 0.14 0.19 0.21 0.15 0.09 0.06 0.08 0.08 0.13 0.28 0.32 0.17 0.08 0.04 0.01 0.00 0.00 0.00 0.00 0.00 0.00 0.00 0.00 0.00 0.00 0.00 0.00 0.00 0.00 0.00 0.00 0.00 0.00 0.00 0.00
0.20 0.17 0.14 0.13 0.12 0.12 0.13 0.13 0.14 0.19 0.27 0.35 0.28 0.10 0.08 0.09 0.12 0.29 0.34 0.16 0.04 0.02 0.01 0.00 0.00 0.00 0.00 0.00 0.00 0.00 0.00 0.00 0.00 0.00 0.00 0.00 0.00 0.00 0.00 0.00 0.00 0.00 0.00
0.17 0.13 0.11 0.11 0.11 0.11 0.12 0.13 0.16 0.23 0.31 0.41 0.39 0.17 0.09 0.08 0.10 0.23 0.29 0.14 0.04 0.02 0.01 0.00 0.00 0.00 0.00 0.00 0.00 0.00 0.00 0.00 0.00 0.00 0.00 0.00 0.00 0.00 0.00 0.00 0.00 0.00 0.00
0.16 0.13 0.10 0.09 0.10 0.11 0.12 0.15 0.19 0.26 0.33 0.37 0.32 0.17 0.10 0.06 0.06 0.13 0.17 0.09 0.03 0.01 0.00 0.00 0.00 0.00 0.00 0.00 0.00 0.00 0.00 0.00 0.00 0.00 0.00 0.00 0.00 0.00 0.00 0.00 0.00 0.00 0.00
0.12 0.11 0.10 0.10 0.11 0.13 0.14 0.17 0.22 0.29 0.35 0.36 0.25 0.12 0.08 0.06 0.05 0.09 0.08 0.04 0.02 0.01 0.00 0.00 0.00 0.00 0.00 0.00 0.00 0.00 0.00 0.00 0.00 0.00 0.00 0.00 0.00 0.00 0.00 0.00 0.00 0.00 0.00
0.10 0.10 0.09 0.10 0.11 0.09 0.09 0.15 0.20 0.26 0.33 0.34 0.20 0.09 0.05 0.05 0.04 0.04 0.04 0.02 0.01 0.00 0.00 0.00 0.00 0.00 0.00 0.00 0.00 0.00 0.00 0.00 0.00 0.00 0.00 0.00 0.00 0.00 0.00 0.00 0.00 0.00 0.00
0.07 0.08 0.07 0.06 0.07 0.08 0.08 0.11 0.15 0.20 0.26 0.25 0.15 0.07 0.04 0.04 0.03 0.02 0.01 0.01 0.01 0.00 0.00 0.00 0.00 0.00 0.00 0.00 0.00 0.00 0.00 0.00 0.00 0.00 0.00 0.00 0.00 0.00 0.00 0.00 0.00 0.00 0.00
0.06 0.06 0.06 0.06 0.06 0.07 0.08 0.10 0.14 0.18 0.18 0.14 0.08 0.05 0.05 0.06 0.04 0.03 0.01 0.01 0.01 0.01 0.00 0.00 0.00 0.00 0.00 0.00 0.00 0.00 0.00 0.00 0.00 0.00 0.00 0.00 0.00 0.00 0.00 0.00 0.00 0.00 0.00
0.07 0.09 0.11 0.11 0.11 0.10 0.10 0.11 0.14 0.13 0.10 0.07 0.05 0.06 0.09 0.09 0.08 0.06 0.03 0.01 0.01 0.01 0.00 0.00 0.00 0.00 0.00 0.00 0.00 0.00 0.00 0.00 0.00 0.00 0.00 0.00 0.00 0.00 0.00 0.00 0.00 0.00 0.00

GEFSGL_prec_meanprecacc_018.txt.gz
Total_Precipitation_Accumulation
0.02 0.02 0.02 0.05 0.09 0.14 0.17 0.18 0.19 0.18 0.16 0.14 0.13 0.12 0.09 0.06 0.05 0.06 0.06 0.05 0.06 0.08 0.10 0.14 0.19 0.23 0.26 0.29 0.36 0.42 0.45 0.52 0.52 0.46 0.51 0.55 0.48 0.32 0.22 0.18 0.12 0.07 0.03
0.02 0.02 0.01 0.01 0.03 0.06 0.10 0.14 0.16 0.15 0.14 0.14 0.13 0.11 0.08 0.07 0.07 0.07 0.07 0.05 0.05 0.05 0.05 0.09 0.12 0.14 0.20 0.26 0.34 0.39 0.45 0.57 0.59 0.44 0.43 0.47 0.42 0.31 0.20 0.16 0.09 0.04 0.02
0.01 0.01 0.00 0.00 0.00 0.01 0.04 0.07 0.10 0.12 0.13 0.13 0.13 0.11 0.09 0.07 0.07 0.07 0.07 0.06 0.06 0.05 0.06 0.08 0.08 0.11 0.16 0.21 0.30 0.33 0.38 0.55 0.63 0.54 0.47 0.44 0.42 0.29 0.20 0.15 0.08 0.04 0.02
0.01 0.01 0.01 0.01 0.01 0.01 0.01 0.03 0.05 0.08 0.11 0.12 0.12 0.11 0.10 0.08 0.06 0.06 0.06 0.05 0.05 0.06 0.09 0.09 0.08 0.10 0.11 0.11 0.21 0.33 0.40 0.48 0.58 0.58 0.58 0.56 0.45 0.33 0.27 0.20 0.13 0.06 0.03
0.04 0.05 0.05 0.05 0.05 0.04 0.04 0.03 0.04 0.06 0.09 0.12 0.12 0.12 0.11 0.10 0.07 0.06 0.07 0.06 0.05 0.05 0.07 0.09 0.06 0.05 0.06 0.07 0.10 0.22 0.35 0.51 0.68 0.75 0.73 0.75 0.62 0.46 0.35 0.25 0.18 0.11 0.05
0.04 0.04 0.04 0.04 0.04 0.04 0.03 0.03 0.04 0.05 0.09 0.12 0.13 0.13 0.13 0.10 0.08 0.06 0.06 0.06 0.06 0.06 0.07 0.09 0.07 0.02 0.01 0.02 0.03 0.09 0.19 0.33 0.52 0.71 0.81 0.85 0.77 0.63 0.46 0.31 0.20 0.10 0.08
0.01 0.01 0.01 0.01 0.02 0.03 0.03 0.03 0.03 0.05 0.08 0.13 0.15 0.15 0.15 0.15 0.12 0.08 0.06 0.06 0.06 0.07 0.07 0.07 0.06 0.03 0.02 0.00 0.01 0.02 0.05 0.13 0.25 0.41 0.56 0.63 0.67 0.64 0.48 0.33 0.21 0.13 0.08
0.00 0.00 0.00 0.01 0.01 0.02 0.04 0.05 0.06 0.06 0.08 0.12 0.14 0.16 0.17 0.17 0.14 0.10 0.08 0.07 0.08 0.08 0.08 0.07 0.07 0.06 0.03 0.01 0.01 0.01 0.02 0.04 0.10 0.18 0.28 0.37 0.41 0.39 0.32 0.27 0.20 0.13 0.09
0.01 0.01 0.01 0.01 0.01 0.01 0.02 0.06 0.09 0.11 0.10 0.14 0.17 0.19 0.21 0.21 0.17 0.11 0.09 0.08 0.09 0.10 0.10 0.09 0.08 0.06 0.02 0.01 0.01 0.01 0.01 0.02 0.04 0.07 0.13 0.19 0.22 0.19 0.15 0.13 0.11 0.07 0.06
0.03 0.03 0.03 0.03 0.04 0.03 0.03 0.05 0.08 0.12 0.14 0.18 0.22 0.26 0.28 0.27 0.22 0.15 0.12 0.09 0.10 0.12 0.14 0.14 0.11 0.05 0.02 0.01 0.02 0.01 0.00 0.00 0.01 0.02 0.04 0.06 0.08 0.08 0.08 0.07 0.05 0.03 0.02
0.07 0.07 0.06 0.06 0.06 0.05 0.05 0.06 0.07 0.10 0.15 0.21 0.27 0.31 0.36 0.39 0.33 0.20 0.15 0.14 0.14 0.16 0.18 0.18 0.14 0.09 0.04 0.02 0.02 0.02 0.00 0.00 0.00 0.01 0.01 0.02 0.02 0.02 0.02 0.03 0.02 0.01 0.01
0.09 0.09 0.08 0.07 0.06 0.04 0.07 0.08 0.09 0.11 0.15 0.22 0.34 0.42 0.46 0.49 0.47 0.33 0.20 0.17 0.20 0.21 0.24 0.25 0.19 0.13 0.07 0.03 0.02 0.01 0.00 0.00 0.00 0.00 0.00 0.01 0.01 0.01 0.01 0.01 0.01 0.01 0.00
0.11 0.11 0.09 0.09 0.09 0.10 0.10 0.09 0.08 0.10 0.12 0.20 0.37 0.53 0.62 0.62 0.56 0.45 0.29 0.21 0.23 0.26 0.28 0.34 0.28 0.18 0.10 0.05 0.02 0.00 0.00 0.00 0.00 0.00 0.00 0.00 0.00 0.00 0.00 0.00 0.00 0.00 0.00
0.15 0.14 0.13 0.13 0.12 0.12 0.14 0.12 0.10 0.08 0.11 0.19 0.37 0.53 0.64 0.65 0.55 0.43 0.33 0.27 0.28 0.31 0.32 0.38 0.39 0.27 0.15 0.07 0.03 0.01 0.00 0.00 0.00 0.00 0.00 0.00 0.00 0.00 0.00 0.00 0.00 0.00 0.00
0.19 0.17 0.17 0.18 0.16 0.15 0.15 0.14 0.11 0.10 0.11 0.15 0.32 0.53 0.61 0.55 0.44 0.36 0.31 0.30 0.29 0.34 0.37 0.44 0.49 0.37 0.21 0.09 0.03 0.01 0.00 0.00 0.00 0.00 0.00 0.00 0.00 0.00 0.00 0.00 0.00 0.00 0.00
0.25 0.21 0.21 0.20 0.19 0.17 0.15 0.13 0.09 0.08 0.06 0.05 0.12 0.27 0.40 0.37 0.30 0.28 0.27 0.27 0.25 0.26 0.34 0.45 0.51 0.40 0.21 0.09 0.02 0.01 0.00 0.00 0.00 0.00 0.00 0.00 0.00 0.00 0.00 0.00 0.00 0.00 0.00
0.28 0.25 0.24 0.22 0.19 0.16 0.15 0.16 0.16 0.15 0.08 0.04 0.05 0.10 0.16 0.18 0.21 0.28 0.29 0.23 0.19 0.16 0.21 0.32 0.38 0.33 0.17 0.07 0.02 0.00 0.00 0.00 0.00 0.00 0.00 0.00 0.00 0.00 0.00 0.00 0.00 0.00 0.00
0.26 0.25 0.23 0.19 0.16 0.14 0.16 0.16 0.16 0.22 0.22 0.16 0.09 0.07 0.09 0.09 0.14 0.31 0.39 0.26 0.17 0.13 0.13 0.18 0.23 0.21 0.11 0.05 0.02 0.00 0.00 0.00 0.00 0.00 0.00 0.00 0.00 0.00 0.00 0.00 0.00 0.00 0.00
0.25 0.21 0.17 0.16 0.15 0.14 0.15 0.15 0.16 0.21 0.31 0.37 0.30 0.10 0.09 0.10 0.13 0.34 0.47 0.28 0.14 0.11 0.09 0.10 0.12 0.09 0.05 0.02 0.01 0.00 0.00 0.00 0.00 0.00 0.00 0.00 0.00 0.00 0.00 0.00 0.00 0.00 0.00
0.21 0.16 0.13 0.13 0.13 0.13 0.13 0.14 0.18 0.26 0.35 0.45 0.41 0.18 0.09 0.09 0.12 0.31 0.45 0.28 0.13 0.09 0.06 0.05 0.04 0.02 0.01 0.01 0.00 0.00 0.00 0.00 0.00 0.00 0.00 0.00 0.00 0.00 0.00 0.00 0.00 0.00 0.00
0.19 0.15 0.11 0.09 0.10 0.11 0.12 0.16 0.21 0.29 0.38 0.44 0.37 0.19 0.10 0.07 0.09 0.22 0.31 0.21 0.11 0.07 0.04 0.02 0.01 0.00 0.00 0.00 0.00 0.00 0.00 0.00 0.00 0.00 0.00 0.00 0.00 0.00 0.00 0.00 0.00 0.00 0.00
0.15 0.12 0.11 0.11 0.12 0.13 0.14 0.18 0.24 0.34 0.43 0.44 0.29 0.14 0.10 0.08 0.09 0.17 0.20 0.13 0.08 0.05 0.02 0.01 0.01 0.01 0.00 0.00 0.00 0.00 0.00 0.00 0.00 0.00 0.00 0.00 0.00 0.00 0.00 0.00 0.00 0.00 0.00
0.14 0.12 0.10 0.10 0.12 0.09 0.10 0.16 0.22 0.30 0.37 0.37 0.22 0.10 0.06 0.08 0.08 0.10 0.11 0.08 0.06 0.03 0.02 0.01 0.01 0.01 0.00 0.00 0.00 0.00 0.00 0.00 0.00 0.00 0.00 0.00 0.00 0.00 0.00 0.00 0.00 0.00 0.00
0.13 0.11 0.08 0.07 0.08 0.08 0.09 0.12 0.16 0.22 0.28 0.26 0.15 0.08 0.05 0.07 0.06 0.04 0.04 0.04 0.03 0.02 0.02 0.02 0.01 0.00 0.00 0.00 0.00 0.00 0.00 0.00 0.00 0.00 0.00 0.00 0.00 0.00 0.00 0.00 0.00 0.00 0.00
0.14 0.12 0.09 0.08 0.07 0.07 0.08 0.10 0.15 0.19 0.19 0.15 0.08 0.05 0.07 0.08 0.06 0.04 0.03 0.02 0.02 0.02 0.02 0.01 0.00 0.00 0.00 0.00 0.00 0.00 0.00 0.00 0.00 0.00 0.00 0.00 0.00 0.00 0.00 0.00 0.00 0.00 0.00
0.14 0.16 0.16 0.14 0.12 0.10 0.10 0.11 0.14 0.14 0.10 0.07 0.05 0.06 0.09 0.09 0.08 0.07 0.03 0.01 0.02 0.02 0.01 0.01 0.00 0.00 0.00 0.00 0.00 0.00 0.00 0.00 0.00 0.00 0.00 0.00 0.00 0.00 0.00 0.00 0.00 0.00 0.00

GEFSGL_prec_meanprecacc_024.txt.gz
Total_Precipitation_Accumulation
0.02 0.02 0.02 0.05 0.09 0.14 0.17 0.18 0.19 0.18 0.16 0.14 0.14 0.13 0.12 0.11 0.13 0.14 0.15 0.15 0.13 0.14 0.13 0.15 0.20 0.24 0.26 0.29 0.36 0.42 0.45 0.53 0.52 0.46 0.51 0.56 0.48 0.32 0.22 0.19 0.16 0.12 0.08
0.02 0.02 0.01 0.01 0.03 0.06 0.10 0.14 0.16 0.15 0.14 0.14 0.13 0.12 0.09 0.09 0.12 0.16 0.18 0.17 0.16 0.15 0.13 0.15 0.15 0.17 0.21 0.26 0.34 0.39 0.45 0.57 0.59 0.44 0.43 0.48 0.43 0.32 0.20 0.17 0.11 0.08 0.06
0.01 0.01 0.00 0.00 0.00 0.01 0.04 0.07 0.10 0.12 0.13 0.13 0.13 0.11 0.09 0.08 0.08 0.11 0.15 0.18 0.20 0.19 0.18 0.18 0.16 0.16 0.18 0.23 0.31 0.33 0.38 0.55 0.63 0.55 0.48 0.46 0.44 0.32 0.23 0.17 0.10 0.07 0.05
0.01 0.01 0.01 0.01 0.01 0.01 0.01 0.03 0.05 0.08 0.11 0.12 0.12 0.11 0.10 0.08 0.06 0.06 0.07 0.10 0.14 0.18 0.23 0.22 0.19 0.17 0.16 0.14 0.23 0.35 0.40 0.48 0.58 0.59 0.60 0.59 0.50 0.38 0.30 0.23 0.16 0.09 0.05
0.04 0.05 0.05 0.05 0.05 0.04 0.04 0.03 0.04 0.06 0.09 0.12 0.12 0.12 0.11 0.10 0.07 0.06 0.07 0.06 0.07 0.10 0.15 0.20 0.19 0.16 0.14 0.12 0.13 0.23 0.36 0.51 0.68 0.75 0.74 0.78 0.67 0.53 0.40 0.28 0.21 0.14 0.08
0.04 0.04 0.04 0.04 0.04 0.04 0.04 0.03 0.04 0.06 0.09 0.13 0.13 0.13 0.13 0.10 0.08 0.06 0.06 0.06 0.07 0.07 0.10 0.16 0.16 0.15 0.11 0.09 0.08 0.11 0.19 0.33 0.53 0.71 0.83 0.87 0.81 0.66 0.49 0.34 0.23 0.13 0.11
0.01 0.01 0.02 0.02 0.03 0.04 0.04 0.04 0.04 0.06 0.09 0.13 0.15 0.15 0.15 0.15 0.12 0.08 0.06 0.06 0.07 0.07 0.08 0.10 0.11 0.10 0.11 0.08 0.05 0.05 0.06 0.13 0.25 0.41 0.57 0.64 0.70 0.66 0.51 0.36 0.24 0.16 0.11
0.01 0.01 0.02 0.03 0.04 0.05 0.08 0.09 0.08 0.09 0.10 0.13 0.14 0.16 0.17 0.18 0.14 0.10 0.08 0.07 0.08 0.08 0.09 0.09 0.10 0.10 0.09 0.08 0.06 0.04 0.03 0.04 0.10 0.18 0.29 0.39 0.44 0.43 0.37 0.32 0.26 0.19 0.15
0.01 0.02 0.03 0.04 0.06 0.08 0.09 0.12 0.15 0.16 0.15 0.18 0.19 0.20 0.21 0.21 0.17 0.11 0.09 0.08 0.09 0.10 0.11 0.12 0.13 0.11 0.08 0.07 0.07 0.04 0.02 0.02 0.04 0.08 0.15 0.24 0.29 0.29 0.24 0.22 0.20 0.15 0.13
0.04 0.05 0.06 0.08 0.11 0.13 0.14 0.16 0.18 0.21 0.21 0.23 0.26 0.28 0.29 0.28 0.22 0.15 0.12 0.09 0.11 0.12 0.15 0.16 0.16 0.13 0.10 0.08 0.07 0.05 0.02 0.01 0.01 0.03 0.08 0.14 0.16 0.19 0.19 0.14 0.11 0.10 0.08
0.08 0.08 0.09 0.11 0.14 0.16 0.19 0.21 0.22 0.22 0.23 0.26 0.30 0.32 0.36 0.39 0.33 0.20 0.16 0.14 0.14 0.16 0.19 0.20 0.20 0.18 0.15 0.11 0.08 0.06 0.03 0.01 0.01 0.02 0.05 0.09 0.12 0.13 0.13 0.11 0.09 0.06 0.04
0.10 0.10 0.10 0.11 0.11 0.13 0.17 0.21 0.23 0.27 0.29 0.31 0.38 0.44 0.47 0.50 0.47 0.33 0.20 0.18 0.20 0.22 0.24 0.27 0.26 0.26 0.23 0.19 0.13 0.08 0.04 0.02 0.01 0.02 0.03 0.07 0.09 0.10 0.10 0.09 0.09 0.06 0.04
0.13 0.12 0.12 0.13 0.14 0.16 0.18 0.18 0.20 0.22 0.23 0.28 0.42 0.56 0.63 0.63 0.56 0.45 0.29 0.21 0.23 0.26 0.28 0.37 0.40 0.37 0.35 0.30 0.22 0.14 0.07 0.04 0.02 0.02 0.03 0.04 0.04 0.05 0.05 0.06 0.06 0.06 0.04
0.17 0.16 0.16 0.18 0.18 0.19 0.22 0.22 0.21 0.20 0.20 0.26 0.41 0.55 0.65 0.65 0.55 0.43 0.33 0.27 0.28 0.31 0.32 0.42 0.52 0.54 0.52 0.46 0.35 0.21 0.10 0.06 0.03 0.03 0.02 0.02 0.03 0.03 0.03 0.03 0.03 0.03 0.03
0.21 0.20 0.21 0.22 0.22 0.21 0.22 0.22 0.21 0.22 0.21 0.23 0.36 0.55 0.62 0.55 0.45 0.36 0.31 0.30 0.29 0.34 0.38 0.48 0.63 0.69 0.72 0.64 0.48 0.29 0.15 0.09 0.05 0.03 0.03 0.02 0.02 0.02 0.02 0.02 0.02 0.02 0.01
0.27 0.24 0.24 0.23 0.22 0.22 0.21 0.19 0.16 0.15 0.13 0.10 0.15 0.29 0.40 0.37 0.31 0.28 0.27 0.27 0.25 0.26 0.34 0.48 0.67 0.74 0.77 0.72 0.56 0.35 0.18 0.09 0.06 0.04 0.03 0.02 0.02 0.02 0.02 0.01 0.02 0.01 0.01
0.31 0.27 0.25 0.23 0.20 0.18 0.17 0.19 0.21 0.20 0.12 0.08 0.07 0.11 0.17 0.18 0.21 0.28 0.29 0.23 0.19 0.17 0.23 0.35 0.53 0.69 0.73 0.72 0.57 0.35 0.18 0.08 0.05 0.04 0.04 0.03 0.02 0.02 0.02 0.02 0.01 0.01 0.01
0.28 0.26 0.23 0.20 0.17 0.15 0.16 0.17 0.17 0.23 0.24 0.18 0.11 0.08 0.09 0.10 0.15 0.31 0.39 0.26 0.18 0.14 0.16 0.22 0.36 0.57 0.65 0.66 0.53 0.35 0.19 0.09 0.04 0.03 0.03 0.03 0.02 0.01 0.01 0.01 0.01 0.00 0.00
0.26 0.21 0.18 0.17 0.15 0.14 0.15 0.15 0.16 0.22 0.31 0.38 0.30 0.11 0.10 0.10 0.14 0.35 0.47 0.29 0.16 0.13 0.13 0.16 0.24 0.42 0.53 0.56 0.44 0.30 0.18 0.08 0.03 0.02 0.01 0.02 0.02 0.01 0.01 0.00 0.00 0.00 0.00
0.21 0.16 0.13 0.13 0.13 0.14 0.13 0.14 0.18 0.26 0.36 0.45 0.42 0.19 0.10 0.09 0.12 0.33 0.47 0.31 0.17 0.13 0.10 0.12 0.17 0.28 0.37 0.41 0.34 0.22 0.14 0.07 0.02 0.01 0.00 0.01 0.01 0.01 0.01 0.00 0.00 0.00 0.00
0.20 0.16 0.11 0.09 0.10 0.12 0.13 0.16 0.21 0.30 0.40 0.45 0.38 0.20 0.11 0.08 0.11 0.25 0.37 0.26 0.16 0.12 0.09 0.08 0.10 0.18 0.22 0.25 0.21 0.13 0.08 0.04 0.01 0.00 0.00 0.00 0.00 0.00 0.00 0.00 0.00 0.00 0.00
0.16 0.13 0.11 0.11 0.12 0.13 0.15 0.19 0.24 0.34 0.44 0.45 0.30 0.15 0.11 0.11 0.13 0.23 0.27 0.20 0.15 0.10 0.06 0.06 0.08 0.10 0.12 0.12 0.09 0.05 0.03 0.02 0.01 0.00 0.00 0.00 0.00 0.00 0.00 0.00 0.00 0.00 0.00
0.16 0.13 0.11 0.10 0.12 0.09 0.10 0.16 0.23 0.30 0.38 0.39 0.24 0.12 0.10 0.12 0.13 0.16 0.17 0.15 0.12 0.08 0.06 0.06 0.06 0.05 0.05 0.04 0.03 0.02 0.01 0.00 0.00 0.00 0.00 0.00 0.00 0.00 0.00 0.00 0.00 0.00 0.00
0.15 0.12 0.09 0.07 0.08 0.08 0.09 0.12 0.16 0.22 0.29 0.28 0.19 0.12 0.10 0.12 0.10 0.09 0.10 0.09 0.08 0.06 0.05 0.04 0.03 0.02 0.02 0.01 0.01 0.00 0.00 0.00 0.00 0.00 0.00 0.00 0.00 0.00 0.00 0.00 0.00 0.00 0.00
0.16 0.14 0.11 0.08 0.07 0.07 0.08 0.10 0.15 0.19 0.20 0.17 0.11 0.09 0.10 0.11 0.10 0.08 0.07 0.07 0.07 0.06 0.05 0.02 0.01 0.01 0.01 0.00 0.00 0.00 0.00 0.00 0.00 0.00 0.00 0.00 0.00 0.00 0.00 0.00 0.00 0.00 0.00
0.16 0.18 0.17 0.14 0.12 0.10 0.10 0.11 0.14 0.14 0.10 0.07 0.06 0.08 0.11 0.11 0.11 0.10 0.07 0.06 0.07 0.07 0.04 0.02 0.01 0.00 0.00 0.00 0.00 0.00 0.00 0.00 0.00 0.00 0.00 0.00 0.00 0.00 0.00 0.00 0.00 0.00 0.00

GEFSGL_prec_meanprecacc_030.txt.gz
Total_Precipitation_Accumulation
0.02 0.02 0.02 0.05 0.09 0.14 0.17 0.18 0.19 0.18 0.17 0.14 0.14 0.13 0.12 0.11 0.13 0.15 0.18 0.20 0.23 0.28 0.33 0.35 0.35 0.36 0.36 0.35 0.39 0.43 0.46 0.53 0.52 0.46 0.51 0.56 0.49 0.33 0.23 0.19 0.16 0.12 0.09
0.02 0.02 0.01 0.01 0.03 0.06 0.10 0.14 0.16 0.15 0.14 0.14 0.13 0.12 0.10 0.10 0.12 0.16 0.19 0.20 0.22 0.26 0.32 0.39 0.41 0.38 0.38 0.38 0.44 0.45 0.48 0.58 0.60 0.45 0.44 0.49 0.44 0.34 0.22 0.18 0.11 0.08 0.07
0.01 0.01 0.00 0.00 0.00 0.01 0.04 0.07 0.10 0.12 0.13 0.13 0.13 0.11 0.09 0.08 0.08 0.11 0.15 0.20 0.24 0.26 0.30 0.37 0.42 0.47 0.46 0.44 0.46 0.45 0.46 0.59 0.65 0.56 0.49 0.47 0.46 0.33 0.24 0.17 0.11 0.07 0.05
0.01 0.01 0.01 0.01 0.01 0.01 0.02 0.03 0.05 0.08 0.11 0.12 0.13 0.12 0.11 0.09 0.07 0.06 0.08 0.11 0.15 0.22 0.30 0.34 0.38 0.45 0.50 0.48 0.49 0.54 0.55 0.58 0.63 0.62 0.61 0.60 0.51 0.40 0.32 0.24 0.18 0.10 0.06
0.04 0.05 0.05 0.05 0.05 0.05 0.04 0.04 0.05 0.07 0.09 0.13 0.14 0.13 0.13 0.11 0.07 0.07 0.08 0.07 0.08 0.12 0.19 0.26 0.29 0.34 0.40 0.48 0.49 0.52 0.59 0.67 0.78 0.80 0.77 0.81 0.69 0.55 0.43 0.29 0.22 0.15 0.10
0.04 0.04 0.04 0.04 0.04 0.04 0.04 0.04 0.05 0.07 0.11 0.15 0.17 0.17 0.16 0.11 0.09 0.06 0.06 0.07 0.08 0.09 0.12 0.19 0.22 0.24 0.27 0.31 0.38 0.45 0.50 0.56 0.68 0.80 0.88 0.90 0.83 0.68 0.50 0.35 0.23 0.14 0.13
0.01 0.02 0.02 0.03 0.04 0.05 0.06 0.06 0.07 0.10 0.13 0.18 0.21 0.21 0.20 0.20 0.14 0.09 0.06 0.08 0.09 0.10 0.11 0.13 0.13 0.14 0.20 0.23 0.25 0.30 0.35 0.38 0.44 0.55 0.66 0.71 0.75 0.69 0.53 0.37 0.25 0.17 0.11
0.01 0.02 0.03 0.04 0.06 0.07 0.10 0.12 0.14 0.15 0.17 0.20 0.22 0.24 0.25 0.25 0.18 0.12 0.09 0.09 0.12 0.12 0.13 0.12 0.12 0.13 0.14 0.16 0.21 0.22 0.22 0.24 0.26 0.30 0.38 0.48 0.52 0.50 0.41 0.35 0.27 0.22 0.18
0.02 0.03 0.05 0.07 0.09 0.11 0.13 0.17 0.22 0.24 0.23 0.27 0.29 0.30 0.31 0.30 0.23 0.15 0.11 0.12 0.14 0.14 0.15 0.15 0.15 0.14 0.10 0.10 0.15 0.17 0.17 0.17 0.17 0.21 0.25 0.32 0.38 0.36 0.30 0.25 0.23 0.19 0.19
0.05 0.07 0.08 0.11 0.16 0.18 0.19 0.22 0.26 0.30 0.30 0.33 0.36 0.39 0.40 0.39 0.30 0.19 0.14 0.14 0.16 0.17 0.20 0.20 0.18 0.14 0.11 0.09 0.11 0.13 0.13 0.13 0.12 0.13 0.17 0.21 0.21 0.23 0.23 0.18 0.14 0.14 0.13
0.09 0.10 0.11 0.14 0.19 0.21 0.25 0.28 0.30 0.32 0.33 0.36 0.40 0.43 0.48 0.51 0.42 0.24 0.18 0.18 0.18 0.20 0.22 0.23 0.22 0.19 0.15 0.12 0.10 0.10 0.10 0.11 0.11 0.11 0.13 0.17 0.19 0.19 0.19 0.18 0.16 0.12 0.09
0.12 0.12 0.13 0.14 0.15 0.17 0.24 0.28 0.31 0.36 0.38 0.41 0.47 0.54 0.57 0.59 0.55 0.38 0.22 0.19 0.22 0.25 0.28 0.30 0.29 0.26 0.23 0.19 0.14 0.11 0.09 0.10 0.13 0.13 0.14 0.15 0.16 0.17 0.18 0.19 0.19 0.17 0.12
0.14 0.14 0.15 0.16 0.18 0.21 0.25 0.26 0.27 0.30 0.31 0.36 0.50 0.64 0.71 0.70 0.62 0.48 0.31 0.22 0.24 0.28 0.31 0.40 0.41 0.38 0.35 0.30 0.23 0.16 0.12 0.10 0.13 0.14 0.12 0.12 0.11 0.10 0.12 0.17 0.20 0.20 0.17
0.18 0.18 0.18 0.20 0.21 0.22 0.27 0.28 0.28 0.28 0.28 0.34 0.49 0.63 0.72 0.71 0.61 0.46 0.35 0.28 0.28 0.32 0.33 0.43 0.52 0.54 0.52 0.47 0.37 0.25 0.16 0.14 0.13 0.13 0.12 0.11 0.12 0.11 0.11 0.11 0.13 0.15 0.15
0.22 0.21 0.22 0.23 0.24 0.23 0.25 0.27 0.26 0.27 0.26 0.28 0.42 0.62 0.68 0.61 0.49 0.39 0.33 0.33 0.32 0.36 0.40 0.51 0.66 0.71 0.73 0.66 0.51 0.35 0.24 0.21 0.18 0.16 0.14 0.12 0.12 0.12 0.11 0.09 0.08 0.07 0.07
0.29 0.25 0.25 0.24 0.24 0.24 0.24 0.24 0.19 0.17 0.15 0.12 0.17 0.32 0.44 0.40 0.32 0.29 0.27 0.28 0.26 0.27 0.36 0.52 0.71 0.78 0.81 0.76 0.62 0.46 0.33 0.27 0.24 0.19 0.17 0.14 0.11 0.11 0.10 0.08 0.07 0.06 0.05
0.32 0.29 0.27 0.25 0.22 0.20 0.19 0.22 0.25 0.24 0.14 0.10 0.09 0.12 0.18 0.19 0.21 0.28 0.30 0.24 0.20 0.17 0.25 0.39 0.58 0.73 0.77 0.77 0.66 0.50 0.39 0.31 0.28 0.24 0.20 0.17 0.12 0.10 0.10 0.08 0.07 0.05 0.04
0.29 0.27 0.25 0.22 0.19 0.17 0.18 0.20 0.21 0.29 0.30 0.22 0.13 0.09 0.10 0.10 0.15 0.31 0.39 0.27 0.18 0.15 0.19 0.27 0.41 0.62 0.70 0.72 0.65 0.55 0.46 0.38 0.34 0.29 0.25 0.20 0.13 0.10 0.09 0.08 0.06 0.04 0.03
0.28 0.23 0.19 0.18 0.18 0.17 0.18 0.19 0.21 0.27 0.35 0.41 0.33 0.12 0.10 0.11 0.15 0.35 0.48 0.31 0.18 0.15 0.15 0.19 0.29 0.47 0.59 0.65 0.59 0.53 0.49 0.43 0.37 0.32 0.28 0.23 0.16 0.11 0.09 0.07 0.06 0.04 0.03
0.23 0.18 0.14 0.14 0.15 0.16 0.16 0.17 0.22 0.31 0.40 0.49 0.45 0.21 0.11 0.12 0.15 0.34 0.49 0.33 0.20 0.16 0.13 0.16 0.23 0.36 0.48 0.56 0.54 0.49 0.49 0.45 0.39 0.32 0.28 0.23 0.17 0.12 0.09 0.07 0.05 0.03 0.02
0.22 0.17 0.12 0.10 0.12 0.14 0.15 0.19 0.25 0.35 0.44 0.50 0.41 0.21 0.13 0.11 0.15 0.29 0.41 0.30 0.20 0.16 0.13 0.13 0.18 0.29 0.38 0.45 0.45 0.41 0.43 0.45 0.37 0.29 0.25 0.20 0.15 0.11 0.08 0.06 0.04 0.03 0.02
0.18 0.15 0.13 0.12 0.13 0.15 0.17 0.22 0.28 0.39 0.48 0.49 0.34 0.17 0.13 0.14 0.18 0.28 0.31 0.25 0.20 0.15 0.12 0.13 0.18 0.25 0.30 0.34 0.33 0.32 0.36 0.39 0.31 0.23 0.19 0.15 0.11 0.08 0.06 0.04 0.04 0.03 0.02
0.18 0.15 0.14 0.12 0.13 0.11 0.13 0.20 0.26 0.33 0.42 0.43 0.28 0.17 0.14 0.18 0.19 0.22 0.24 0.22 0.19 0.15 0.14 0.16 0.18 0.20 0.24 0.25 0.23 0.23 0.26 0.27 0.20 0.14 0.12 0.09 0.07 0.05 0.03 0.02 0.02 0.02 0.02
0.16 0.14 0.12 0.10 0.09 0.09 0.11 0.14 0.19 0.24 0.32 0.32 0.22 0.16 0.14 0.17 0.17 0.17 0.19 0.18 0.17 0.15 0.16 0.16 0.15 0.16 0.18 0.18 0.17 0.17 0.16 0.14 0.10 0.07 0.06 0.04 0.04 0.03 0.02 0.01 0.01 0.01 0.01
0.17 0.16 0.13 0.11 0.09 0.08 0.09 0.12 0.17 0.21 0.22 0.19 0.15 0.13 0.15 0.18 0.17 0.16 0.15 0.14 0.14 0.14 0.14 0.13 0.12 0.12 0.11 0.10 0.09 0.08 0.08 0.07 0.05 0.03 0.02 0.01 0.01 0.02 0.01 0.00 0.00 0.00 0.01
0.17 0.19 0.18 0.17 0.15 0.13 0.12 0.13 0.16 0.15 0.12 0.09 0.09 0.12 0.15 0.17 0.18 0.17 0.14 0.11 0.13 0.14 0.12 0.10 0.08 0.07 0.06 0.05 0.05 0.03 0.02 0.02 0.01 0.01 0.00 0.00 0.01 0.01 0.01 0.00 0.00 0.00 0.00

GEFSGL_prec_meanprecacc_036.txt.gz
Total_Precipitation_Accumulation
0.02 0.02 0.02 0.06 0.10 0.14 0.17 0.19 0.20 0.19 0.17 0.15 0.14 0.14 0.12 0.12 0.13 0.16 0.18 0.20 0.24 0.30 0.36 0.42 0.46 0.53 0.59 0.58 0.59 0.58 0.56 0.61 0.59 0.52 0.58 0.61 0.51 0.34 0.24 0.20 0.17 0.13 0.09
0.02 0.02 0.01 0.01 0.03 0.06 0.11 0.14 0.16 0.16 0.15 0.14 0.14 0.13 0.10 0.10 0.13 0.17 0.20 0.21 0.23 0.26 0.33 0.43 0.47 0.49 0.54 0.61 0.70 0.69 0.68 0.74 0.72 0.58 0.59 0.60 0.51 0.39 0.26 0.20 0.12 0.09 0.07
0.01 0.01 0.01 0.01 0.01 0.02 0.05 0.08 0.11 0.13 0.14 0.14 0.14 0.12 0.10 0.09 0.10 0.12 0.17 0.21 0.25 0.27 0.31 0.39 0.47 0.55 0.58 0.61 0.69 0.71 0.74 0.85 0.85 0.74 0.67 0.67 0.61 0.41 0.28 0.19 0.11 0.08 0.05
0.01 0.01 0.01 0.02 0.02 0.02 0.02 0.04 0.06 0.09 0.12 0.14 0.15 0.14 0.14 0.12 0.09 0.09 0.10 0.14 0.18 0.24 0.32 0.35 0.40 0.51 0.60 0.64 0.71 0.81 0.86 0.90 0.93 0.88 0.85 0.83 0.73 0.55 0.39 0.26 0.18 0.11 0.06
0.05 0.05 0.06 0.06 0.06 0.05 0.05 0.05 0.06 0.08 0.11 0.15 0.17 0.17 0.17 0.15 0.09 0.09 0.12 0.11 0.13 0.16 0.22 0.29 0.31 0.36 0.46 0.58 0.67 0.76 0.89 1.00 1.11 1.11 1.07 1.10 0.94 0.72 0.52 0.32 0.23 0.15 0.10
0.05 0.05 0.05 0.05 0.05 0.06 0.06 0.06 0.07 0.10 0.15 0.20 0.21 0.22 0.21 0.14 0.10 0.09 0.09 0.11 0.13 0.15 0.18 0.24 0.25 0.26 0.29 0.36 0.47 0.61 0.75 0.87 1.04 1.15 1.20 1.23 1.17 0.93 0.68 0.44 0.26 0.14 0.14
0.03 0.03 0.03 0.05 0.05 0.07 0.07 0.08 0.10 0.14 0.19 0.24 0.26 0.27 0.27 0.27 0.19 0.13 0.09 0.11 0.14 0.17 0.19 0.21 0.17 0.16 0.22 0.25 0.30 0.38 0.49 0.61 0.73 0.89 1.01 1.03 1.10 1.05 0.78 0.51 0.31 0.18 0.12
0.02 0.03 0.04 0.06 0.08 0.09 0.13 0.15 0.19 0.22 0.24 0.27 0.28 0.31 0.34 0.32 0.24 0.16 0.13 0.13 0.17 0.19 0.20 0.21 0.20 0.18 0.19 0.22 0.26 0.27 0.29 0.35 0.43 0.52 0.64 0.80 0.88 0.90 0.75 0.57 0.40 0.26 0.19
0.03 0.05 0.06 0.09 0.11 0.13 0.16 0.22 0.29 0.32 0.30 0.34 0.37 0.39 0.41 0.40 0.30 0.19 0.14 0.17 0.23 0.22 0.22 0.23 0.24 0.21 0.17 0.14 0.21 0.23 0.24 0.25 0.28 0.35 0.45 0.61 0.72 0.74 0.71 0.54 0.38 0.24 0.20
0.06 0.08 0.10 0.13 0.18 0.21 0.24 0.28 0.32 0.38 0.38 0.41 0.44 0.48 0.52 0.51 0.41 0.24 0.18 0.21 0.27 0.28 0.31 0.31 0.26 0.23 0.20 0.12 0.15 0.18 0.18 0.20 0.22 0.23 0.29 0.39 0.45 0.53 0.56 0.45 0.29 0.20 0.14
0.11 0.11 0.13 0.17 0.22 0.25 0.31 0.36 0.37 0.40 0.42 0.45 0.49 0.53 0.61 0.63 0.52 0.28 0.20 0.25 0.31 0.36 0.36 0.34 0.32 0.25 0.19 0.13 0.12 0.15 0.14 0.16 0.20 0.23 0.25 0.31 0.37 0.40 0.44 0.43 0.31 0.19 0.12
0.13 0.14 0.14 0.17 0.18 0.20 0.30 0.35 0.39 0.45 0.48 0.50 0.57 0.64 0.70 0.72 0.64 0.42 0.23 0.23 0.33 0.42 0.45 0.45 0.43 0.35 0.26 0.20 0.14 0.12 0.11 0.13 0.19 0.23 0.27 0.29 0.32 0.32 0.35 0.38 0.36 0.27 0.17
0.16 0.16 0.17 0.18 0.22 0.27 0.32 0.34 0.35 0.39 0.41 0.46 0.60 0.74 0.81 0.82 0.72 0.50 0.31 0.23 0.27 0.38 0.46 0.56 0.55 0.44 0.38 0.32 0.24 0.16 0.12 0.11 0.16 0.21 0.22 0.24 0.25 0.25 0.28 0.35 0.36 0.31 0.24
0.20 0.19 0.20 0.22 0.24 0.28 0.36 0.37 0.36 0.36 0.36 0.42 0.58 0.72 0.82 0.82 0.73 0.54 0.39 0.30 0.30 0.35 0.40 0.51 0.59 0.58 0.54 0.48 0.38 0.25 0.16 0.15 0.15 0.20 0.21 0.24 0.28 0.28 0.27 0.25 0.25 0.24 0.23
0.24 0.23 0.23 0.25 0.27 0.28 0.34 0.37 0.31 0.33 0.29 0.30 0.46 0.68 0.75 0.70 0.57 0.45 0.39 0.40 0.38 0.40 0.45 0.61 0.74 0.77 0.76 0.68 0.54 0.37 0.25 0.22 0.21 0.22 0.25 0.26 0.29 0.28 0.24 0.19 0.16 0.14 0.13
0.30 0.27 0.26 0.27 0.28 0.30 0.33 0.33 0.25 0.19 0.15 0.12 0.17 0.33 0.46 0.42 0.33 0.30 0.28 0.29 0.28 0.29 0.40 0.63 0.85 0.91 0.90 0.84 0.69 0.51 0.38 0.30 0.28 0.27 0.28 0.27 0.26 0.25 0.22 0.17 0.14 0.12 0.10
0.34 0.30 0.29 0.27 0.27 0.27 0.28 0.33 0.37 0.32 0.17 0.11 0.09 0.13 0.19 0.19 0.22 0.28 0.30 0.24 0.20 0.18 0.27 0.46 0.69 0.85 0.90 0.88 0.76 0.59 0.45 0.36 0.36 0.34 0.32 0.28 0.25 0.24 0.20 0.17 0.14 0.12 0.09
0.30 0.29 0.27 0.25 0.25 0.26 0.28 0.31 0.33 0.40 0.41 0.31 0.17 0.10 0.10 0.11 0.15 0.32 0.39 0.27 0.19 0.16 0.21 0.32 0.50 0.73 0.81 0.82 0.75 0.64 0.53 0.47 0.45 0.42 0.37 0.32 0.28 0.23 0.19 0.15 0.12 0.10 0.08
0.29 0.25 0.21 0.20 0.22 0.25 0.28 0.29 0.30 0.36 0.46 0.52 0.44 0.18 0.12 0.12 0.15 0.36 0.48 0.33 0.23 0.20 0.19 0.24 0.36 0.55 0.68 0.73 0.69 0.63 0.57 0.53 0.49 0.46 0.42 0.36 0.30 0.26 0.20 0.15 0.11 0.11 0.08
0.24 0.20 0.15 0.15 0.18 0.23 0.25 0.25 0.30 0.39 0.48 0.58 0.56 0.30 0.16 0.15 0.20 0.39 0.51 0.38 0.29 0.26 0.21 0.22 0.29 0.43 0.56 0.65 0.65 0.58 0.57 0.54 0.52 0.47 0.44 0.38 0.32 0.28 0.23 0.17 0.13 0.10 0.07
0.23 0.19 0.14 0.13 0.17 0.20 0.23 0.26 0.31 0.41 0.52 0.58 0.49 0.25 0.14 0.16 0.24 0.40 0.51 0.39 0.30 0.28 0.24 0.22 0.25 0.35 0.45 0.53 0.53 0.49 0.50 0.53 0.48 0.44 0.41 0.38 0.33 0.29 0.25 0.19 0.14 0.10 0.07
0.20 0.17 0.15 0.15 0.18 0.20 0.21 0.28 0.34 0.45 0.54 0.56 0.41 0.20 0.14 0.18 0.25 0.36 0.40 0.33 0.28 0.24 0.21 0.20 0.25 0.33 0.37 0.40 0.39 0.39 0.43 0.46 0.43 0.40 0.39 0.37 0.34 0.28 0.24 0.22 0.18 0.14 0.11
0.19 0.17 0.16 0.15 0.17 0.14 0.18 0.26 0.31 0.38 0.46 0.48 0.34 0.23 0.19 0.24 0.26 0.30 0.33 0.32 0.28 0.24 0.21 0.22 0.25 0.28 0.31 0.31 0.29 0.29 0.33 0.36 0.34 0.34 0.34 0.33 0.31 0.27 0.23 0.20 0.19 0.17 0.13
0.17 0.16 0.14 0.13 0.13 0.14 0.16 0.20 0.22 0.27 0.34 0.35 0.28 0.23 0.22 0.26 0.26 0.26 0.27 0.27 0.27 0.26 0.25 0.24 0.22 0.23 0.25 0.25 0.25 0.26 0.28 0.28 0.28 0.30 0.29 0.27 0.26 0.25 0.21 0.17 0.18 0.17 0.14
0.18 0.17 0.14 0.14 0.12 0.12 0.14 0.17 0.22 0.24 0.24 0.22 0.20 0.20 0.23 0.27 0.26 0.25 0.25 0.25 0.26 0.25 0.24 0.23 0.21 0.20 0.21 0.19 0.20 0.21 0.22 0.23 0.26 0.29 0.27 0.25 0.24 0.23 0.20 0.16 0.17 0.17 0.15
0.17 0.20 0.19 0.19 0.17 0.16 0.15 0.17 0.21 0.20 0.15 0.12 0.13 0.18 0.24 0.27 0.27 0.26 0.23 0.22 0.24 0.25 0.24 0.22 0.21 0.20 0.19 0.16 0.15 0.15 0.17 0.20 0.23 0.27 0.24 0.23 0.22 0.21 0.19 0.16 0.15 0.13 0.12